Weather History for KRKS - September, 2012

Change the Weather History Date:

Sunday, September 23, 2012

  Actual Average Record
Temperature  
Mean Temperature 64 °F 53 °F  
Max Temperature 78 °F 67 °F 83 °F (1966)
Min Temperature 49 °F 40 °F 19 °F (2000)
Degree Days  
Heating Degree Days 1 12  
Month to date heating degree days 67 170  
Since 1 July heating degree days 68 234  
Cooling Degree Days 0 0  
Month to date cooling degree days 6 7  
Year to date cooling degree days 541 284  
Growing Degree Days 12 (Base 50)    
Moisture  
Dew Point 23 °F    
Average Humidity 25    
Maximum Humidity 36    
Minimum Humidity 14    
Precipitation  
Precipitation 0.00 in 0.03 in 0.53 in (2000)
Month to date precipitation T 0.69  
Year to date precipitation 2.69 6.47  
Snow  
Snow 0.00 in - - ()
Snow Depth 0.00 in    
Sea Level Pressure  
Sea Level Pressure 30.02 in    
Wind  
Wind Speed 5 mph (SSW)    
Max Wind Speed 13 mph    
Max Gust Speed 20 mph    
Visibility 10 miles    
Events      
T = Trace of Precipitation, MM = Missing Value Source: NWS Daily Summary

Daily Weather History Graph

Daily Weather History Graph

Search for Another Location

Airport or City:

Trip Planner

Search our weather history database for the weather conditions in past years. The results will help you decide how hot, cold, wet, or windy it might be!

Date:

Astronomy

Sep. 23, 2012 Rise Set
Actual Time 7:05 AM MDT 7:10 PM MDT
Civil Twilight 6:37 AM MDT 7:38 PM MDT
Nautical Twilight 6:05 AM MDT 8:10 PM MDT
Astronomical Twilight 5:32 AM MDT 8:43 PM MDT
Moon 3:18 PM MDT (9/23) 12:16 AM MDT (9/23)
Length of Visible Light 13h 00m
Length of Day
12h 05m
First Quarter, 60% of the Moon is Illuminated
Sep 23
First Quarter
Sep 29
Full
Oct 8
Last Quarter
Oct 15
New
Oct 21
First Quarter

Hourly Weather History & Observations

Time (MDT) Temp. Dew Point Humidity Pressure Visibility Wind Dir Wind Speed Gust Speed Precip Events Conditions
12:54 AM 59.0 °F 16.0 °F 19% 30.03 in 10.0 mi WSW 3.5 mph - N/A   Clear
1:54 AM 59.0 °F 17.1 °F 20% 30.01 in 10.0 mi Calm Calm - N/A   Clear
2:54 AM 55.9 °F 16.0 °F 21% 30.02 in 10.0 mi Calm Calm - N/A   Clear
3:54 AM 55.0 °F 17.1 °F 23% 30.01 in 10.0 mi Calm Calm - N/A   Clear
4:54 AM 54.0 °F 17.1 °F 23% 30.01 in 10.0 mi Calm Calm - N/A   Clear
5:54 AM 51.1 °F 17.1 °F 26% 30.04 in 10.0 mi SE 5.8 mph - N/A   Clear
6:54 AM 52.0 °F 18.0 °F 26% 30.06 in 10.0 mi Calm Calm - N/A   Clear
7:54 AM 50.0 °F 17.1 °F 27% 30.08 in 10.0 mi Calm Calm - N/A   Clear
8:54 AM 54.0 °F 17.1 °F 23% 30.08 in 10.0 mi ENE 4.6 mph - N/A   Clear
9:54 AM 57.9 °F 16.0 °F 19% 30.08 in 10.0 mi Calm Calm - N/A   Clear
10:54 AM 66.0 °F 17.1 °F 15% 30.06 in 10.0 mi Calm Calm - N/A   Partly Cloudy
11:54 AM 72.0 °F 19.9 °F 14% 30.03 in 10.0 mi Variable 3.5 mph - N/A   Scattered Clouds
12:54 PM 75.9 °F 23.0 °F 14% 30.00 in 10.0 mi Variable 6.9 mph - N/A   Mostly Cloudy
1:54 PM 73.9 °F 24.1 °F 16% 29.97 in 10.0 mi WNW 6.9 mph - N/A   Mostly Cloudy
2:54 PM 75.9 °F 26.1 °F 16% 29.96 in 10.0 mi South 9.2 mph 19.6 mph N/A   Mostly Cloudy
3:54 PM 75.0 °F 25.0 °F 16% 29.95 in 10.0 mi South 11.5 mph - N/A   Mostly Cloudy
4:54 PM 75.0 °F 26.1 °F 16% 29.96 in 10.0 mi WSW 12.7 mph - N/A   Mostly Cloudy
5:54 PM 73.0 °F 28.0 °F 19% 29.99 in 10.0 mi West 9.2 mph - N/A   Partly Cloudy
6:54 PM 68.0 °F 30.9 °F 25% 30.01 in 10.0 mi West 12.7 mph - N/A   Mostly Cloudy
7:54 PM 64.0 °F 33.1 °F 31% 30.05 in 10.0 mi West 10.4 mph - N/A   Clear
8:54 PM 64.0 °F 32.0 °F 30% 30.05 in 10.0 mi WSW 10.4 mph - N/A   Overcast
9:54 PM 62.1 °F 33.1 °F 34% 30.03 in 10.0 mi SSE 5.8 mph - N/A   Scattered Clouds
10:54 PM 61.0 °F 33.1 °F 35% 30.00 in 10.0 mi SSE 5.8 mph - N/A   Partly Cloudy
11:54 PM 60.1 °F 33.1 °F 36% 29.99 in 10.0 mi ESE 6.9 mph - N/A   Clear